Home   Weather   Drammen   Past weeks

Flag for Norway Past Weather in Drammen, Norway — Yesterday and Last 2 Weeks

50 °F

Broken clouds.

Feels Like: 43 °F
Forecast: 34 / 44 °F
Wind: 23 mph from South

Location: Statfjord B

Current Time: Oct 24, 2016 at 4:21:53 PM

Latest Report: Oct 24, 2016 at 3:50 PM

Visibility: N/A

Pressure: 30.21 "Hg

Humidity: 71%

Dew Point: 41 °F

Location of DrammenLocation

Past Weather in Drammen — Graph


Drammen Temperature Yesterday

Maximum temperature yesterday: 50 °F (at 12:20 AM)
Minimum temperature yesterday: 46 °F (at 2:20 PM)
Average temperature yesterday: 48 °F

High & Low Weather Summary for the Past Weeks

High57 °F (Oct 12, 2:50 PM)100% (Oct 19, 6:20 PM)30.57 "Hg (Oct 19, 6:20 PM)
Low46 °F (Oct 9, 8:20 PM)50% (Oct 23, 2:20 PM)29.80 "Hg (Oct 17, 11:50 PM)
Average51 °F78%30.26 "Hg
* Reported Oct 9 2:20 PM — Oct 24 2:50 PM, Drammen, Weather by CustomWeather, © 2016

Note: Actual official high and low records may vary slightly from our data, if they occured in-between our weather recording intervals... More about our weather records


Drammen Weather History for the Previous 24 Hours

Scroll right to see more
Time TempWeatherWind HumidityBarometerVisibility
2:50 PM
Mon, Oct 24
52 °FPartly sunny.18 mph67%30.21 "HgN/A
2:20 PM52 °FPartly sunny.18 mph62%30.21 "HgN/A
1:50 PM54 °FPartly sunny.17 mph58%30.21 "HgN/A
1:20 PM52 °FScattered clouds.13 mph62%30.21 "HgN/A
12:50 PM52 °FPartly sunny.13 mph62%30.21 "HgN/A
12:20 PM52 °FPartly sunny.14 mph58%30.24 "HgN/A
11:50 AM52 °FPartly sunny.22 mph62%30.21 "HgN/A
11:20 AM52 °FPassing clouds.16 mph54%30.24 "HgN/A
10:50 AM52 °FPassing clouds.17 mph54%30.24 "HgN/A
10:20 AM52 °FPartly sunny.14 mph58%30.24 "HgN/A
9:50 AM50 °FPartly sunny.12 mph62%30.24 "HgN/A
9:20 AM50 °FPassing clouds.14 mph58%30.24 "HgN/A
8:50 AM50 °FPassing clouds.16 mph58%30.21 "HgN/A
8:20 AM50 °FCool.13 mph58%30.21 "HgN/A
7:50 AM50 °FCool.10 mph58%30.21 "HgN/A
7:20 AM50 °FCool.10 mph58%30.21 "HgN/A
6:50 AM48 °FCool.12 mph62%30.21 "HgN/A
6:20 AM48 °FCool.10 mph62%30.21 "HgN/A
5:50 AM48 °FCool.10 mph58%30.21 "HgN/A
5:20 AM48 °FCool.9 mph58%30.21 "HgN/A
4:50 AM48 °FCool.9 mph62%30.21 "HgN/A
4:20 AM48 °FCool.8 mph62%30.21 "HgN/A
3:50 AM48 °FCool.9 mph62%30.21 "HgN/A
3:20 AM48 °FCool.9 mph58%30.21 "HgN/A
2:50 AM48 °FCool.10 mph58%30.21 "HgN/A
2:20 AM48 °FCool.9 mph58%30.21 "HgN/A
1:50 AM48 °FCool.9 mph58%30.21 "HgN/A
1:20 AM48 °FCool.10 mph58%30.21 "HgN/A
12:50 AM48 °FCool.12 mph58%30.21 "HgN/A
12:20 AM48 °FPassing clouds.13 mph54%30.21 "HgN/A
11:50 PM
Sun, Oct 23
48 °FPartly cloudy.14 mph62%30.21 "HgN/A
11:20 PM48 °FPassing clouds.14 mph62%30.21 "HgN/A
10:50 PM48 °FPassing clouds.14 mph62%30.21 "HgN/A
10:20 PM48 °FPassing clouds.13 mph66%30.21 "HgN/A
9:50 PM48 °FPassing clouds.13 mph62%30.21 "HgN/A
9:20 PM48 °FCool.13 mph62%30.21 "HgN/A
8:50 PM48 °FPassing clouds.13 mph62%30.21 "HgN/A
8:20 PM48 °FPassing clouds.14 mph62%30.21 "HgN/A
7:50 PM48 °FCool.14 mph58%30.21 "HgN/A
7:20 PM48 °FPassing clouds.14 mph58%30.21 "HgN/A
6:50 PM48 °FPassing clouds.13 mph58%30.21 "HgN/A
6:20 PM46 °FPassing clouds.12 mph62%30.21 "HgN/A
5:50 PM46 °FPassing clouds.14 mph71%30.21 "HgN/A
5:20 PM46 °FScattered clouds.13 mph62%30.21 "HgN/A
4:50 PM46 °FPassing clouds.13 mph53%30.21 "HgN/A
4:20 PM46 °FScattered clouds.17 mph53%30.21 "HgN/A
Weather by CustomWeather, © 2016

See weather overviewHow to use our weather pages